Home   Weather   Fairfield Heights   Past weeks
Flag for USA

Past Weather in Fairfield Heights, Maryland, USA — Yesterday and Last 2 Weeks

Now
48 °F

Scattered clouds.


Feels Like: 42 °F
Forecast: 47 / 36 °F
Wind: 17 mph from West

Location: Reagan National Airport

Current Time: Dec 5, 2019 at 1:05:23 pm

Latest Report: Dec 5, 2019 at 11:52 am


Visibility: 10 mi

Pressure: 29.98 "Hg

Humidity: 39%

Dew Point: 24 °F

Location of Fairfield HeightsLocation

Past Weather in Fairfield Heights — Graph

°F

Fairfield Heights Temperature Yesterday

Maximum temperature yesterday: 49 °F (at 3:52 pm)
Minimum temperature yesterday: 37 °F (at 5:52 am)
Average temperature yesterday: 43 °F

High & Low Weather Summary for the Past Weeks

 TemperatureHumidityPressure
High62 °F (Nov 26, 2:52 pm)100% (Dec 2, 10:55 am)30.30 "Hg (Dec 2, 10:55 am)
Low34 °F (Dec 2, 10:55 am)34% (Nov 27, 10:52 pm)29.46 "Hg (Nov 24, 3:52 am)
Average45 °F68%29.87 "Hg
* Reported Nov 20 11:52 am — Dec 5 11:52 am, Fairfield Heights. Weather by CustomWeather, © 2019

Note: Actual official high and low records may vary slightly from our data, if they occured in-between our weather recording intervals... More about our weather records

Fairfield Heights Weather History for the Previous 24 Hours

Scroll right to see more
 ConditionsComfort  
Time TempWeatherWind HumidityBarometerVisibility
11:52 am
Thu, Dec 5
48 °FScattered clouds.17 mph39%29.98 "Hg10 mi
10:52 am46 °FPartly sunny.20 mph42%29.98 "Hg10 mi
9:52 am43 °FOvercast.13 mph49%29.96 "Hg10 mi
8:52 am43 °FScattered clouds.16 mph49%29.92 "Hg10 mi
7:52 am40 °FPartly sunny.6 mph58%29.90 "Hg10 mi
6:52 am40 °FPassing clouds.9 mph58%29.87 "Hg10 mi
5:52 am40 °FPassing clouds.9 mph58%29.82 "Hg10 mi
4:52 am40 °FPassing clouds.12 mph63%29.78 "Hg10 mi
3:52 am41 °FPassing clouds.13 mph62%29.75 "Hg10 mi
2:52 am41 °FPassing clouds.15 mph65%29.72 "Hg10 mi
1:52 am42 °FMostly cloudy.13 mph73%29.69 "Hg10 mi
12:52 am41 °FPassing clouds.7 mph74%29.66 "Hg10 mi
11:52 pm
Wed, Dec 4
44 °FMostly cloudy.9 mph63%29.65 "Hg10 mi
10:52 pm44 °FLight rain. Mostly cloudy.5 mph58%29.64 "Hg10 mi
9:52 pm44 °FPassing clouds.5 mph55%29.64 "Hg10 mi
8:52 pm45 °FPassing clouds.5 mph51%29.63 "Hg10 mi
7:52 pm46 °FPassing clouds.3 mph51%29.62 "Hg10 mi
6:52 pm47 °FPassing clouds.8 mph48%29.62 "Hg10 mi
5:52 pm47 °FPartly cloudy.8 mph59%29.59 "Hg10 mi
4:52 pm47 °FLight rain. Passing clouds.14 mph64%29.56 "Hg10 mi
3:52 pm49 °FMostly cloudy.6 mph50%29.53 "Hg10 mi
3:39 pm48 °FLight rain. Mostly cloudy.9 mph54%29.53 "Hg10 mi
2:52 pm48 °FPartly sunny.12 mph56%29.53 "Hg10 mi
1:52 pm48 °FBroken clouds.9 mph52%29.54 "Hg10 mi
Weather by CustomWeather, © 2019

See weather overview

Advertising